Wind_Speed
6 5 4 4 4 3 4 4 4 2 1 2 3 9 9 5 6 5 6 5 6 6 4 3 4 3 5 4 3 5 7 9 10 9 10 9 10 14
6 5 4 3 2 2 3 3 4 4 1 2 6 11 6 5 4 2 2 3 5 4 4 1 2 2 3 4 3 3 6 8 9 12 13 11 10 8
5 5 5 3 3 4 3 4 4 6 5 3 2 5 3 2 2 2 1 2 2 3 2 1 0 3 3 2 4 6 6 7 7 10 11 15 17 17
4 5 4 5 4 4 5 4 5 5 4 4 5 1 2 1 2 1 1 2 1 4 5 2 4 2 3 4 5 4 5 6 6 5 10 10 14 14
5 5 4 3 3 4 5 4 4 4 5 4 3 2 2 1 2 2 1 1 2 3 4 6 2 2 2 3 3 3 5 7 8 9 10 11 13 13
5 5 5 5 6 6 5 4 4 5 5 4 4 4 2 3 3 2 1 1 1 2 3 3 3 4 3 3 4 6 5 5 7 9 10 12 12 12
6 6 4 5 6 6 5 4 4 4 3 3 3 2 1 1 1 1 1 2 3 1 1 1 1 3 5 5 5 4 5 6 7 10 11 11 12 12
7 6 5 6 6 5 4 2 1 2 4 4 3 3 3 2 1 1 3 2 1 2 0 1 1 1 4 4 2 2 3 4 7 9 10 11 12 13
8 8 7 7 10 8 5 2 2 2 3 6 7 6 4 2 3 4 4 3 1 1 1 1 2 2 2 1 1 2 4 6 8 10 10 11 11 11
8 9 9 11 10 9 5 5 7 9 9 10 9 7 4 4 4 4 5 8 6 5 0 2 3 3 4 4 3 3 5 6 8 8 9 10 10 11
8 8 9 9 10 11 8 11 13 14 11 11 10 9 7 5 4 3 4 6 3 1 5 2 2 4 4 4 5 2 3 5 6 7 9 10 10 12
7 7 7 9 13 12 10 12 14 13 9 7 7 6 6 5 4 3 1 2 2 1 4 5 3 4 2 1 2 4 5 7 6 8 10 12 12 13
8 6 6 9 13 11 9 10 9 11 8 6 4 4 4 5 6 6 6 3 2 3 5 4 3 3 3 3 3 3 7 7 6 10 14 14 14 11
10 7 6 8 8 10 10 8 9 9 8 6 4 3 3 4 5 5 6 6 7 6 5 5 3 4 4 3 3 4 7 3 6 15 16 15 12 10
9 8 10 9 10 11 10 10 9 8 7 7 5 2 2 3 2 3 4 4 4 4 5 6 5 5 4 4 5 5 9 5 8 18 18 17 15 12
11 11 11 10 10 10 9 8 7 6 7 6 5 4 3 3 3 3 5 4 2 3 5 7 7 6 5 3 3 6 5 6 14 17 19 17 13 10
12 11 10 10 8 6 6 6 6 5 5 5 6 5 5 5 5 4 4 4 0 4 6 6 9 4 3 3 1 4 7 12 15 17 18 21 18 13
12 12 10 8 7 8 7 7 7 7 6 6 6 7 6 6 6 5 4 3 3 4 7 9 13 5 3 4 0 4 9 16 15 16 16 20 23 19
10 11 11 9 8 9 9 9 8 7 6 6 7 8 8 8 7 6 5 4 4 3 5 7 9 11 5 2 2 3 13 14 17 19 20 19 20 20
19 14 12 10 9 10 10 11 10 8 8 8 9 10 10 10 10 8 5 4 4 2 3 5 6 8 4 2 5 10 7 12 16 19 22 23 18 15
20 20 15 13 12 10 10 11 11 11 10 10 11 12 12 12 10 7 6 3 2 0 2 5 7 6 6 7 7 11 13 12 14 14 18 19 16 14
18 20 19 16 14 14 12 11 12 12 12 12 13 13 13 12 9 8 6 4 3 2 3 5 4 5 4 7 12 14 18 17 14 13 12 12 13 7
18 19 19 19 17 15 14 14 14 15 14 13 14 15 15 14 10 9 6 4 3 2 3 5 7 7 6 9 11 17 20 22 22 24 25 19 13 16
Wind_Direction
166 155 157 147 119 137 146 164 146 149 276 162 204 6 10 3 342 332 324 336 353 353 8 268 245 9 59 80 46 12 29 22 20 7 356 335 336 330
179 182 187 184 143 170 149 162 190 181 204 190 306 327 338 331 296 297 346 355 26 16 356 347 39 64 33 75 41 354 1 17 17 11 6 350 334 346
189 198 196 204 221 232 228 221 217 216 217 270 286 324 1 22 261 13 31 0 40 82 109 129 277 101 109 12 0 360 33 28 335 5 22 31 40 45
196 190 200 213 220 235 230 223 225 227 231 262 286 275 334 295 269 308 170 118 144 131 87 103 137 128 344 344 345 17 36 32 25 22 29 31 31 32
211 225 242 246 266 248 225 224 226 231 239 232 260 211 305 263 288 310 257 172 225 215 149 127 104 58 22 28 33 50 63 70 62 47 31 31 32 29
227 236 230 236 253 248 245 231 237 251 248 237 239 233 231 267 285 265 253 63 102 136 157 171 176 111 50 50 63 77 83 59 44 36 29 23 17 13
222 227 231 224 228 236 232 248 267 253 234 236 241 176 196 253 242 252 186 139 77 107 119 105 118 81 76 80 79 70 61 42 29 22 14 7 358 352
218 214 213 210 204 193 171 145 94 194 208 214 186 171 147 145 105 139 162 177 205 24 291 74 123 119 102 71 52 354 26 10 10 3 2 359 357 354
213 209 205 190 189 168 164 146 88 113 175 192 172 150 144 121 127 134 149 167 150 279 233 204 242 255 246 205 334 314 311 341 351 356 355 351 349 347
209 205 202 193 192 185 171 130 109 101 106 116 122 116 122 131 130 128 128 139 124 65 83 230 249 270 254 242 238 293 324 340 354 352 348 344 342 338
205 203 199 199 192 190 173 144 126 109 102 107 107 101 97 110 145 145 167 191 203 234 15 339 303 301 277 242 224 237 306 351 345 349 345 341 339 326
194 198 203 200 187 187 178 165 146 144 140 124 106 96 90 96 98 97 108 201 167 145 10 359 353 349 349 54 216 262 294 315 316 333 342 336 336 323
165 156 140 174 172 182 185 185 176 166 159 151 130 107 93 78 69 61 58 70 107 94 4 3 13 10 342 310 278 277 329 333 336 332 331 333 330 325
167 151 151 170 154 168 181 178 169 165 170 177 168 143 86 67 67 69 71 70 75 80 46 29 18 4 345 312 309 307 328 315 341 345 343 341 337 329
153 137 136 139 141 147 145 150 166 173 190 197 201 164 111 86 106 110 105 88 78 66 29 10 356 339 322 278 302 314 337 320 331 337 337 345 343 337
142 143 148 142 141 147 157 163 168 192 211 215 194 167 144 111 128 126 145 144 79 40 6 358 337 317 311 299 316 346 359 332 334 338 335 335 346 344
162 163 161 160 164 176 179 180 180 193 202 213 201 186 161 145 134 132 139 171 167 13 6 19 5 332 310 267 260 6 355 345 341 339 341 337 341 350
181 184 191 198 205 211 208 207 215 217 216 227 201 196 180 164 154 144 140 116 85 45 44 30 22 38 132 44 105 341 344 339 341 349 354 345 337 351
208 206 213 215 226 225 224 223 222 216 216 218 208 201 188 171 170 155 145 124 85 59 45 31 26 26 41 352 328 316 336 343 343 348 353 347 328 341
221 226 229 223 228 235 237 235 230 224 215 219 208 202 195 196 181 171 151 136 128 71 13 357 352 9 11 331 319 336 357 345 347 336 338 339 338 346
229 232 238 242 237 235 239 242 239 229 218 214 210 205 199 196 187 181 171 156 135 130 304 327 335 335 319 332 325 325 345 358 349 327 333 331 326 323
239 241 241 245 244 247 248 240 234 222 217 211 211 202 198 197 197 186 180 181 207 239 284 316 332 335 354 334 323 326 329 333 340 337 339 327 295 296
242 241 246 240 239 237 235 236 233 227 224 216 209 202 197 192 190 184 180 200 216 247 293 316 327 341 329 330 324 324 325 332 333 336 335 341 326 309
Height
817 819 821 823 821 822 822 823 824 828 828 828 829 828 827 827 826 826 826 826 825 824 825 826 826 825 825 824 825 825 823 822 821 820 818 817 816 814
816 818 820 822 821 822 821 822 823 825 826 826 827 827 827 826 826 825 825 826 825 825 825 825 825 825 825 825 825 824 823 822 821 820 818 816 814 812
818 819 820 821 821 821 820 821 823 823 823 823 825 826 825 825 826 825 824 824 824 825 824 825 825 825 825 824 824 824 822 821 821 821 820 816 814 811
818 818 819 820 820 820 820 820 821 821 822 821 824 824 825 825 825 824 824 824 825 824 824 824 825 824 824 824 824 824 823 822 821 821 820 817 815 814
816 817 817 817 818 819 819 819 819 820 820 821 822 823 823 824 823 824 823 824 824 823 824 824 824 824 825 825 825 824 824 823 822 821 820 817 815 814
813 814 815 815 818 820 819 818 819 819 818 819 820 821 822 822 822 822 823 822 823 823 823 824 824 825 825 825 825 824 824 824 822 820 819 817 815 814
812 813 813 814 817 818 817 817 816 816 816 817 819 820 821 822 822 821 822 823 823 823 823 824 824 824 824 825 825 824 824 823 821 820 819 818 816 815
810 811 812 814 816 816 816 816 815 814 815 817 818 820 821 821 822 821 822 823 824 823 823 823 823 824 825 825 825 825 824 823 822 821 820 819 817 815
808 810 811 812 815 815 815 815 815 814 814 816 818 819 821 821 821 822 822 823 823 824 823 823 823 824 824 824 825 824 824 823 822 821 820 819 818 816
807 808 809 811 813 814 815 816 815 814 815 817 819 821 821 821 821 822 823 824 824 824 824 823 823 823 823 823 824 824 824 823 822 822 820 819 817 815
805 806 808 809 811 813 815 816 816 817 818 820 821 821 821 821 822 822 823 824 824 824 824 823 823 822 822 822 823 823 823 823 822 821 820 818 815 813
805 805 806 808 810 812 815 816 816 818 820 822 822 823 823 822 822 822 822 822 823 824 824 824 823 822 821 821 822 822 822 822 821 819 818 816 813 811
804 804 805 807 810 812 814 816 817 819 821 823 824 824 824 823 823 822 822 822 822 823 824 823 823 823 822 822 821 822 821 820 819 818 816 813 811 808
803 805 806 808 810 812 814 816 817 819 821 823 824 824 824 823 823 823 823 823 824 824 825 824 824 824 823 822 822 821 820 819 818 817 814 811 809 806
805 806 808 809 811 813 815 816 817 819 822 823 823 823 823 824 824 824 824 825 825 826 825 825 824 823 823 823 822 821 820 819 818 815 812 809 806 803
805 808 809 811 812 814 815 816 818 820 821 822 822 822 823 823 824 824 825 826 826 826 826 825 824 823 822 822 822 822 821 820 817 813 810 807 804 802
805 808 809 811 812 813 815 817 818 819 820 821 821 822 823 824 825 826 826 826 827 827 827 826 823 822 821 822 822 822 821 819 816 813 808 804 801 799
805 807 808 810 811 813 814 815 816 818 819 820 821 822 823 824 826 827 827 828 828 828 827 826 824 822 823 823 822 822 820 818 815 811 807 803 797 796
804 805 806 808 809 811 812 813 815 816 818 818 820 822 823 825 826 827 828 828 828 828 828 827 827 826 824 825 822 821 819 816 813 808 806 804 800 794
801 804 805 806 807 809 810 812 813 815 816 817 819 821 823 825 826 827 828 828 828 829 829 829 828 827 825 825 823 820 819 816 812 808 805 801 798 794
798 800 802 803 804 806 807 809 811 812 814 816 818 820 822 824 826 826 827 828 828 829 829 829 828 827 825 823 822 819 816 815 812 809 805 801 796 792
795 797 798 800 801 803 805 806 808 809 811 813 816 818 820 822 824 825 826 827 829 829 829 828 827 825 824 823 821 819 815 812 810 807 805 803 798 793
791 793 794 795 797 799 801 803 804 806 808 811 813 815 818 820 822 824 826 827 827 827 827 826 825 824 823 822 819 816 813 808 804 800 798 797 795 791